Location: A�t Bou Chrif
(32.7193°N, 5.2385°W)
Time: 23:01:18
(UTC+00:00)

Cosmos 2082 Rocket - Pass Details

Date: 08 August 2020
Orbit: 835 x 852 km, 71.0° (Epoch: 17 September)

Event Time Altitude Azimuth Distance (km) Brightness Sun altitude
Rises 21:40:30 0° 217° (SW) 3,402 5.3 -27.3°
Reaches altitude 10° 21:43:04 10° 224° (SW) 2,468 4.6 -27.7°
Maximum altitude 21:48:25 43° 295° (WNW) 1,176 3.3 -28.5°
Drops below altitude 10° 21:53:48 10° 6° (N) 2,471 5.1 -29.3°
Sets 21:56:23 0° 13° (NNE) 3,407 5.8 -29.7°
